timestamp,surface_pressure_avg,surface_temp_avg,battery_voltage,lat,long
2018-12-22 00:00:00+00:00,328.663,2.5,12.97,47.84626,-54.09684
2018-12-22 00:10:00+00:00,326.783,2.5,12.89,47.84626,-54.09684
2018-12-22 00:20:00+00:00,318.9663,2.5,12.97,47.84626,-54.09684
2018-12-22 00:30:00+00:00,306.7247,2.5,12.97,47.84626,-54.09684
2018-12-22 00:40:00+00:00,296.9647,2.5,13.05,47.84626,-54.09684
2018-12-22 00:50:00+00:00,296.5364,2.5,13.05,47.84626,-54.09684
2018-12-22 01:00:00+00:00,293.1964,2.5,12.97,47.84626,-54.09684
2018-12-22 01:10:00+00:00,285.123,2.5,12.89,47.84626,-54.09684
2018-12-22 01:20:00+00:00,278.1097,2.5,12.97,47.84626,-54.09684
2018-12-22 01:30:00+00:00,274.1315,2.5,12.97,47.84626,-54.09684
2018-12-22 01:40:00+00:00,267.423,2.5,12.97,47.84626,-54.09684
2018-12-22 01:50:00+00:00,255.4514,2.4,12.97,47.84626,-54.09684
2018-12-22 02:00:00+00:00,244.3847,2.3,12.97,47.84626,-54.09684
2018-12-22 02:10:00+00:00,237.6648,2.37,12.81,47.84626,-54.09684
2018-12-22 02:20:00+00:00,228.4631,2.3,12.97,47.84626,-54.09684
2018-12-22 02:30:00+00:00,221.2564,2.2,12.97,47.84626,-54.09684
2018-12-22 02:40:00+00:00,215.8131,2.16,12.97,47.84626,-54.09684
2018-12-22 02:50:00+00:00,212.6815,2.11,12.97,47.84626,-54.09684
2018-12-22 03:00:00+00:00,205.9298,2.1,12.89,47.84626,-54.09684
2018-12-22 03:10:00+00:00,200.0998,2.1,12.81,47.84626,-54.09684
2018-12-22 03:20:00+00:00,201.3115,2.1,12.89,47.84626,-54.09684
2018-12-22 03:30:00+00:00,194.0881,2.11,12.97,47.84626,-54.09684
2018-12-22 03:40:00+00:00,187.6231,2.13,12.97,47.84626,-54.09684
2018-12-22 03:50:00+00:00,184.5832,2.0,12.97,47.84626,-54.09684
2018-12-22 04:00:00+00:00,181.9198,1.9,12.89,47.84626,-54.09684
2018-12-22 04:10:00+00:00,180.2481,1.81,12.81,47.84626,-54.09684
2018-12-22 04:20:00+00:00,174.1531,1.79,12.89,47.84626,-54.09684
2018-12-22 04:30:00+00:00,176.0032,1.77,12.89,47.84626,-54.09684
2018-12-22 04:40:00+00:00,183.3398,1.87,12.97,47.84626,-54.09684
2018-12-22 04:50:00+00:00,183.4415,1.94,12.97,47.84626,-54.09684
2018-12-22 05:00:00+00:00,185.4482,2.0,12.89,47.84626,-54.09684
2018-12-22 05:10:00+00:00,192.4047,2.09,12.81,47.84626,-54.09684
2018-12-22 05:20:00+00:00,190.5448,2.1,12.89,47.84626,-54.09684
2018-12-22 05:30:00+00:00,185.4598,2.12,12.89,47.84626,-54.09684
2018-12-22 05:40:00+00:00,188.7681,2.16,12.89,47.84626,-54.09684
2018-12-22 05:50:00+00:00,197.0814,2.19,12.89,47.84626,-54.09684
2018-12-22 06:00:00+00:00,204.1065,2.2,12.81,47.84626,-54.09684
2018-12-22 06:10:00+00:00,207.1848,2.2,12.73,47.84626,-54.09684
2018-12-22 06:20:00+00:00,208.9247,2.2,12.89,47.84626,-54.09684
2018-12-22 06:30:00+00:00,214.6581,2.2,12.89,47.84626,-54.09684
2018-12-22 06:40:00+00:00,224.8098,2.2,12.89,47.84626,-54.09684
2018-12-22 06:50:00+00:00,231.0098,2.2,12.89,47.84626,-54.09684
2018-12-22 07:00:00+00:00,236.0648,2.26,12.81,47.84626,-54.09684
2018-12-22 07:10:00+00:00,243.3364,2.3,12.73,47.84626,-54.09684
2018-12-22 07:20:00+00:00,247.7614,2.34,12.81,47.84626,-54.09684
2018-12-22 07:30:00+00:00,249.4448,2.37,12.81,47.84626,-54.09684
2018-12-22 07:40:00+00:00,252.5031,2.4,12.89,47.84626,-54.09684
2018-12-22 07:50:00+00:00,260.9547,2.4,12.89,47.84626,-54.09684
2018-12-22 08:00:00+00:00,270.8897,2.4,12.81,47.84626,-54.09684
2018-12-22 08:10:00+00:00,279.4564,2.36,12.73,47.84626,-54.09684
2018-12-22 08:20:00+00:00,286.9431,2.36,12.81,47.84626,-54.09684
2018-12-22 08:30:00+00:00,297.3447,2.39,12.81,47.84626,-54.09684
2018-12-22 08:40:00+00:00,307.6497,2.4,12.89,47.84626,-54.09684
2018-12-22 08:50:00+00:00,314.1329,2.4,12.89,47.84626,-54.09684
2018-12-22 09:00:00+00:00,317.4813,2.4,12.81,47.84626,-54.09684
2018-12-22 09:10:00+00:00,322.8679,2.39,12.73,47.84626,-54.09684
2018-12-22 09:20:00+00:00,331.7846,2.53,12.81,47.84626,-54.09684
2018-12-22 09:30:00+00:00,341.6246,2.7,12.81,47.84626,-54.09684
2018-12-22 09:40:00+00:00,345.248,2.6,12.89,47.84626,-54.09684
2018-12-22 09:50:00+00:00,351.5829,2.5,12.89,47.84626,-54.09684
2018-12-22 10:00:00+00:00,357.2462,2.5,12.81,47.84626,-54.09684
2018-12-22 10:10:00+00:00,362.0447,2.48,12.73,47.84626,-54.09684
2018-12-22 10:20:00+00:00,365.3796,2.5,12.81,47.84626,-54.09684
2018-12-22 10:30:00+00:00,369.1246,2.5,12.81,47.84626,-54.09684
2018-12-22 10:40:00+00:00,371.063,2.5,12.89,47.84626,-54.09684
2018-12-22 10:50:00+00:00,371.1246,2.5,12.89,47.84626,-54.09684
2018-12-22 11:00:00+00:00,375.0612,2.5,12.81,47.84626,-54.09684
2018-12-22 11:10:00+00:00,373.1013,2.5,12.73,47.84626,-54.09684
2018-12-22 11:20:00+00:00,374.2913,2.5,12.81,47.84626,-54.09684
2018-12-22 11:30:00+00:00,378.3646,2.53,12.81,47.84626,-54.09684
2018-12-22 11:40:00+00:00,373.7796,2.51,12.89,47.84626,-54.09684
2018-12-22 11:50:00+00:00,366.7778,2.5,12.89,47.84626,-54.09684
2018-12-22 12:00:00+00:00,367.4812,2.5,12.81,47.84626,-54.09684
2018-12-22 12:10:00+00:00,370.5695,2.5,12.73,47.84626,-54.09684
2018-12-22 12:20:00+00:00,360.4596,2.5,12.81,47.84626,-54.09684
2018-12-22 12:30:00+00:00,347.7863,2.5,12.81,47.84626,-54.09684
2018-12-22 12:40:00+00:00,348.2313,2.5,12.89,47.84626,-54.09684
2018-12-22 12:50:00+00:00,346.6863,2.5,12.89,47.84626,-54.09684
2018-12-22 13:00:00+00:00,336.3963,2.5,12.81,47.84626,-54.09684
2018-12-22 13:10:00+00:00,325.808,2.5,12.81,47.84626,-54.09684
2018-12-22 13:20:00+00:00,324.9697,2.5,12.89,47.84626,-54.09684
2018-12-22 13:30:00+00:00,318.928,2.5,12.89,47.84626,-54.09684
2018-12-22 13:40:00+00:00,305.498,2.49,12.97,47.84626,-54.09684
2018-12-22 13:50:00+00:00,297.5514,2.4,12.97,47.84626,-54.09684
2018-12-22 14:00:00+00:00,294.298,2.4,12.89,47.84626,-54.09684
2018-12-22 14:10:00+00:00,285.033,2.4,12.81,47.84626,-54.09684
2018-12-22 14:20:00+00:00,271.9364,2.4,12.89,47.84626,-54.09684
2018-12-22 14:30:00+00:00,267.3881,2.39,12.97,47.84626,-54.09684
2018-12-22 14:40:00+00:00,262.5214,2.4,13.05,47.84626,-54.09684
2018-12-22 14:50:00+00:00,255.5831,2.4,13.05,47.84626,-54.09684
2018-12-22 15:00:00+00:00,245.5081,2.4,13.05,47.84626,-54.09684
2018-12-22 15:10:00+00:00,234.5647,2.37,12.97,47.84626,-54.09684
2018-12-22 15:20:00+00:00,225.2947,2.33,13.05,47.84626,-54.09684
2018-12-22 15:30:00+00:00,212.1731,2.3,13.05,47.84626,-54.09684
2018-12-22 15:40:00+00:00,196.8031,2.3,13.13,47.84626,-54.09684
2018-12-22 15:50:00+00:00,193.7715,2.3,13.13,47.84626,-54.09684
2018-12-22 16:00:00+00:00,199.7831,2.34,13.05,47.84626,-54.09684
2018-12-22 16:10:00+00:00,187.5798,2.4,12.89,47.84626,-54.09684
2018-12-22 16:20:00+00:00,173.0881,2.4,12.97,47.84626,-54.09684
2018-12-22 16:30:00+00:00,173.8248,2.4,12.97,47.84626,-54.09684
2018-12-22 16:40:00+00:00,171.0865,2.4,12.97,47.84626,-54.09684
2018-12-22 16:50:00+00:00,167.3248,2.4,12.97,47.84626,-54.09684
2018-12-22 17:00:00+00:00,164.7698,2.4,12.89,47.84626,-54.09684
2018-12-22 17:10:00+00:00,157.9532,2.4,12.89,47.84626,-54.09684
2018-12-22 17:20:00+00:00,154.4982,2.4,12.97,47.84626,-54.09684
2018-12-22 17:30:00+00:00,165.2665,2.4,12.97,47.84626,-54.09684
2018-12-22 17:40:00+00:00,165.1382,2.4,12.97,47.84626,-54.09684
2018-12-22 17:50:00+00:00,160.6198,2.49,13.05,47.84626,-54.09684
2018-12-22 18:00:00+00:00,178.4048,2.6,12.97,47.84626,-54.09684
2018-12-22 18:10:00+00:00,180.3598,2.7,12.89,47.84626,-54.09684
2018-12-22 18:20:00+00:00,168.3932,2.67,12.89,47.84626,-54.09684
2018-12-22 18:30:00+00:00,180.7231,2.67,12.89,47.84626,-54.09684
2018-12-22 18:40:00+00:00,192.6431,2.7,12.97,47.84626,-54.09684
2018-12-22 18:50:00+00:00,182.2965,2.7,12.97,47.84626,-54.09684
2018-12-22 19:00:00+00:00,189.0548,2.7,12.89,47.84626,-54.09684
2018-12-22 19:10:00+00:00,205.2014,2.7,12.81,47.84626,-54.09684
2018-12-22 19:20:00+00:00,203.6281,2.7,12.89,47.84626,-54.09684
2018-12-22 19:30:00+00:00,204.2514,2.77,12.89,47.84626,-54.09684
2018-12-22 19:40:00+00:00,215.7365,2.79,12.89,47.84626,-54.09684
2018-12-22 19:50:00+00:00,220.4698,2.8,12.89,47.84626,-54.09684
2018-12-22 20:00:00+00:00,226.4614,2.8,12.81,47.84626,-54.09684
2018-12-22 20:10:00+00:00,236.0931,2.8,12.73,47.84626,-54.09684
2018-12-22 20:20:00+00:00,241.8581,2.81,12.81,47.84626,-54.09684
2018-12-22 20:30:00+00:00,248.6481,2.8,12.89,47.84626,-54.09684
2018-12-22 20:40:00+00:00,260.2948,2.8,12.89,47.84626,-54.09684
2018-12-22 20:50:00+00:00,269.4964,2.8,12.89,47.84626,-54.09684
2018-12-22 21:00:00+00:00,277.9714,2.8,12.81,47.84626,-54.09684
2018-12-22 21:10:00+00:00,292.1798,2.8,12.73,47.84626,-54.09684
2018-12-22 21:20:00+00:00,302.938,2.81,12.81,47.84626,-54.09684
2018-12-22 21:30:00+00:00,306.5997,2.89,12.89,47.84626,-54.09684
2018-12-22 21:40:00+00:00,315.3914,2.87,12.89,47.84626,-54.09684
2018-12-22 21:50:00+00:00,325.7196,2.9,12.89,47.84626,-54.09684
2018-12-22 22:00:00+00:00,330.658,2.92,12.81,47.84626,-54.09684
2018-12-22 22:10:00+00:00,341.0946,2.96,12.73,47.84626,-54.09684
2018-12-22 22:20:00+00:00,360.3879,2.98,12.81,47.84626,-54.09684
2018-12-22 22:30:00+00:00,361.2579,3.0,12.81,47.84626,-54.09684
2018-12-22 22:40:00+00:00,352.1547,2.92,12.89,47.84626,-54.09684
2018-12-22 22:50:00+00:00,356.2845,3.0,12.89,47.84626,-54.09684
2018-12-22 23:00:00+00:00,360.713,3.0,12.81,47.84626,-54.09684
2018-12-22 23:10:00+00:00,353.1746,3.0,12.73,47.84626,-54.09684
2018-12-22 23:20:00+00:00,348.3647,3.0,12.81,47.84626,-54.09684
2018-12-22 23:30:00+00:00,358.7897,3.0,12.81,47.84626,-54.09684
2018-12-22 23:40:00+00:00,360.3196,3.0,12.89,47.84626,-54.09684
2018-12-22 23:50:00+00:00,343.5146,3.0,12.89,47.84626,-54.09684
